Grizzly Air Cargo 5369


PADU
Unalaska Airport
Unalaska, Alaska, US
PANC
Ted Stevens Anchorage International Airport
Anchorage, Alaska, US

Activity Log

Date Flight Route Aircraft Duration
12/16/2019 GRZ5369 N0446F410 DUT J115 AKN Q47 AMOTT AMOTT4 B738 1h 56m
11/27/2019 GRZ5369 DUT J115 TUCKS AMOTT4 B722 1h 37m

Route Details

Aircraft Information
Primary: Boeing 727-200F
Backup: Boeing 737-800BCF
Route Data
Distance: 712nm
Sched. Duration: 2h 00m
Avg. Duration: 1h 46m (-55m)
Times Flown: 2
Recm'd Route: DUT J115 TUCKS AMOTT4
Planned Altitude: 33,000ft
Origin Wx: PADU 310716Z AUTO 35011G16KT 10SM BKN015 OVC020 04/02 A2992 RMK AO2
Dest. Wx: PANC 310653Z 17004KT 10SM CLR M05/M14 A3004 RMK AO2 SLP174 T10501139 $
Notes:

Financial History
Total Freight: 45,562lbs
Average Load: 22,781lbs/flt
Fuel Used: 17,391lbs
Avg. Fuel Used: 8,696lbs/flt
Fuel Expense: $12,869
Avg. Fuel Expense: $6,435
Avg. Fuel Cost: $0.74/lbs
Total Gross Income: $126,662
Pilot Pay: $468
Total Expenses: $13,784
Total Revenue: $99,180
Average Revenue: $63,331.18